owner,sensor,date,latitude,longitude,vertical_datum,wind_speed,wind_to_direction,wind_speed_of_gust,qcFlag 
COMPS,ioos:station:USF.COMPS:FHP:1,2017-10-01T00:00:00Z,28.1530,-82.8010,10.0,7.12,63.93,9.3,'1111122,1111122,1111122' 
COMPS,ioos:station:USF.COMPS:FHP:1,2017-10-01T00:06:00Z,28.1530,-82.8010,10.0,7.3,65.89,8.91,'1111122,1111122,1111122' 
COMPS,ioos:station:USF.COMPS:FHP:1,2017-10-01T00:12:00Z,28.1530,-82.8010,10.0,6.96,62.67,8.52,'1111122,1111122,1111122' 
COMPS,ioos:station:USF.COMPS:FHP:1,2017-10-01T00:18:00Z,28.1530,-82.8010,10.0,5.63,66.16,7.15,'1111122,1111122,1111122' 
COMPS,ioos:station:USF.COMPS:FHP:1,2017-10-01T00:24:00Z,28.1530,-82.8010,10.0,5.13,70.79,7.05,'1111122,1111122,1111122' 
COMPS,ioos:station:USF.COMPS:FHP:1,2017-10-01T00:30:00Z,28.1530,-82.8010,10.0,5.22,68.89,6.37,'1111122,1111122,1111122' 
COMPS,ioos:station:USF.COMPS:FHP:1,2017-10-01T00:36:00Z,28.1530,-82.8010,10.0,5.24,67.52,6.95,'1111122,1111122,1111122' 
COMPS,ioos:station:USF.COMPS:FHP:1,2017-10-01T00:42:00Z,28.1530,-82.8010,10.0,6.01,72.39,7.25,'1111122,1111122,1111122' 
COMPS,ioos:station:USF.COMPS:FHP:1,2017-10-01T00:48:00Z,28.1530,-82.8010,10.0,6.01,63.77,7.54,'1111122,1111122,1111122' 
COMPS,ioos:station:USF.COMPS:FHP:1,2017-10-01T00:54:00Z,28.1530,-82.8010,10.0,6.26,61.32,8.13,'1111122,1111122,1111122' 
COMPS,ioos:station:USF.COMPS:FHP:1,2017-10-01T01:00:00Z,28.1530,-82.8010,10.0,5.66,61.53,7.15,'1111122,1111122,1111122' 
COMPS,ioos:station:USF.COMPS:FHP:1,2017-10-01T01:06:00Z,28.1530,-82.8010,10.0,5.57,67.8,7.35,'1111122,1111122,1111122' 
COMPS,ioos:station:USF.COMPS:FHP:1,2017-10-01T01:12:00Z,28.1530,-82.8010,10.0,5.11,64.19,6.95,'1111122,1111122,1111122' 
COMPS,ioos:station:USF.COMPS:FHP:1,2017-10-01T01:18:00Z,28.1530,-82.8010,10.0,5.99,64.34,8.13,'1111122,1111122,1111122' 
COMPS,ioos:station:USF.COMPS:FHP:1,2017-10-01T01:24:00Z,28.1530,-82.8010,10.0,5.86,60.22,7.35,'1111122,1111122,1111122' 
COMPS,ioos:station:USF.COMPS:FHP:1,2017-10-01T01:30:00Z,28.1530,-82.8010,10.0,7.03,61.32,8.82,'1111122,1111122,1111122' 
COMPS,ioos:station:USF.COMPS:FHP:1,2017-10-01T01:36:00Z,28.1530,-82.8010,10.0,6.61,59.75,8.33,'1111122,1111122,1111122' 
COMPS,ioos:station:USF.COMPS:FHP:1,2017-10-01T01:42:00Z,28.1530,-82.8010,10.0,6.62,60.49,9.11,'1111122,1111122,1111122' 
COMPS,ioos:station:USF.COMPS:FHP:1,2017-10-01T01:48:00Z,28.1530,-82.8010,10.0,6.64,65.84,9.6,'1111122,1111122,1111122' 
COMPS,ioos:station:USF.COMPS:FHP:1,2017-10-01T01:54:00Z,28.1530,-82.8010,10.0,7.06,63.87,10.58,'1111122,1111122,1111122' 
COMPS,ioos:station:USF.COMPS:FHP:1,2017-10-01T02:00:00Z,28.1530,-82.8010,10.0,7.48,65.01,9.89,'1111122,1111122,1111122' 
COMPS,ioos:station:USF.COMPS:FHP:1,2017-10-01T02:06:00Z,28.1530,-82.8010,10.0,7.03,60.73,9.5,'1111122,1111122,1111122' 
COMPS,ioos:station:USF.COMPS:FHP:1,2017-10-01T02:12:00Z,28.1530,-82.8010,10.0,6.69,62.29,8.03,'1111122,1111122,1111122' 
COMPS,ioos:station:USF.COMPS:FHP:1,2017-10-01T02:18:00Z,28.1530,-82.8010,10.0,6.17,59.61,8.72,'1111122,1111122,1111122' 
COMPS,ioos:station:USF.COMPS:FHP:1,2017-10-01T02:24:00Z,28.1530,-82.8010,10.0,6.69,61.45,9.01,'1111122,1111122,1111122' 
COMPS,ioos:station:USF.COMPS:FHP:1,2017-10-01T02:30:00Z,28.1530,-82.8010,10.0,6.4,63.6,8.52,'1111122,1111122,1111122' 
COMPS,ioos:station:USF.COMPS:FHP:1,2017-10-01T02:36:00Z,28.1530,-82.8010,10.0,6.15,61.62,7.93,'1111122,1111122,1111122' 
COMPS,ioos:station:USF.COMPS:FHP:1,2017-10-01T02:42:00Z,28.1530,-82.8010,10.0,7.03,63.0,10.38,'1111122,1111122,1111122' 
COMPS,ioos:station:USF.COMPS:FHP:1,2017-10-01T02:48:00Z,28.1530,-82.8010,10.0,7.04,63.71,8.72,'1111122,1111122,1111122' 
COMPS,ioos:station:USF.COMPS:FHP:1,2017-10-01T02:54:00Z,28.1530,-82.8010,10.0,6.79,64.09,8.33,'1111122,1111122,1111122' 
COMPS,ioos:station:USF.COMPS:FHP:1,2017-10-01T03:00:00Z,28.1530,-82.8010,10.0,6.65,64.92,8.13,'1111122,1111122,1111122' 
COMPS,ioos:station:USF.COMPS:FHP:1,2017-10-01T03:06:00Z,28.1530,-82.8010,10.0,5.58,59.78,7.15,'1111122,1111122,1111122' 
COMPS,ioos:station:USF.COMPS:FHP:1,2017-10-01T03:12:00Z,28.1530,-82.8010,10.0,6.82,57.12,9.21,'1111122,1111122,1111122' 
COMPS,ioos:station:USF.COMPS:FHP:1,2017-10-01T03:18:00Z,28.1530,-82.8010,10.0,6.37,59.25,8.52,'1111122,1111122,1111122' 
COMPS,ioos:station:USF.COMPS:FHP:1,2017-10-01T03:24:00Z,28.1530,-82.8010,10.0,6.8,61.63,8.82,'1111122,1111122,1111122' 
COMPS,ioos:station:USF.COMPS:FHP:1,2017-10-01T03:30:00Z,28.1530,-82.8010,10.0,6.64,57.81,8.72,'1111122,1111122,1111122' 
COMPS,ioos:station:USF.COMPS:FHP:1,2017-10-01T03:36:00Z,28.1530,-82.8010,10.0,7.23,55.94,8.62,'1111122,1111122,1111122' 
COMPS,ioos:station:USF.COMPS:FHP:1,2017-10-01T03:42:00Z,28.1530,-82.8010,10.0,6.49,65.15,8.23,'1111122,1111122,1111122' 
COMPS,ioos:station:USF.COMPS:FHP:1,2017-10-01T03:48:00Z,28.1530,-82.8010,10.0,6.2,60.06,7.83,'1111122,1111122,1111122' 
COMPS,ioos:station:USF.COMPS:FHP:1,2017-10-01T03:54:00Z,28.1530,-82.8010,10.0,5.67,68.33,7.35,'1111122,1111122,1111122' 
COMPS,ioos:station:USF.COMPS:FHP:1,2017-10-01T04:00:00Z,28.1530,-82.8010,10.0,4.89,66.3,6.27,'1111122,1111122,1111122' 
COMPS,ioos:station:USF.COMPS:FHP:1,2017-10-01T04:06:00Z,28.1530,-82.8010,10.0,4.72,66.42,6.27,'1111122,1111122,1111122' 
COMPS,ioos:station:USF.COMPS:FHP:1,2017-10-01T04:12:00Z,28.1530,-82.8010,10.0,5.03,64.71,6.56,'1111122,1111122,1111122' 
COMPS,ioos:station:USF.COMPS:FHP:1,2017-10-01T04:18:00Z,28.1530,-82.8010,10.0,5.0,66.54,6.66,'1111122,1111122,1111122' 
COMPS,ioos:station:USF.COMPS:FHP:1,2017-10-01T04:24:00Z,28.1530,-82.8010,10.0,4.57,75.43,5.78,'1111122,1111122,1111122' 
COMPS,ioos:station:USF.COMPS:FHP:1,2017-10-01T04:30:00Z,28.1530,-82.8010,10.0,4.69,81.99,6.17,'1111122,1111122,1111122' 
COMPS,ioos:station:USF.COMPS:FHP:1,2017-10-01T04:36:00Z,28.1530,-82.8010,10.0,5.92,77.54,7.83,'1111122,1111122,1111122' 
COMPS,ioos:station:USF.COMPS:FHP:1,2017-10-01T04:42:00Z,28.1530,-82.8010,10.0,5.88,79.26,8.23,'1111122,1111122,1111122' 
COMPS,ioos:station:USF.COMPS:FHP:1,2017-10-01T04:48:00Z,28.1530,-82.8010,10.0,6.56,78.16,8.33,'1111122,1111122,1111122' 
COMPS,ioos:station:USF.COMPS:FHP:1,2017-10-01T04:54:00Z,28.1530,-82.8010,10.0,7.78,79.4,10.09,'1111122,1111122,1111122' 
COMPS,ioos:station:USF.COMPS:FHP:1,2017-10-01T05:00:00Z,28.1530,-82.8010,10.0,6.55,86.77,8.42,'1111122,1111122,1111122' 
COMPS,ioos:station:USF.COMPS:FHP:1,2017-10-01T05:06:00Z,28.1530,-82.8010,10.0,5.76,90.85,7.15,'1111122,1111122,1111122' 
COMPS,ioos:station:USF.COMPS:FHP:1,2017-10-01T05:12:00Z,28.1530,-82.8010,10.0,5.82,96.14,7.15,'1111122,1111122,1111122' 
COMPS,ioos:station:USF.COMPS:FHP:1,2017-10-01T05:18:00Z,28.1530,-82.8010,10.0,6.45,89.41,8.42,'1111122,1111122,1111122' 
COMPS,ioos:station:USF.COMPS:FHP:1,2017-10-01T05:24:00Z,28.1530,-82.8010,10.0,6.54,86.83,9.89,'1111122,1111122,1111122' 
COMPS,ioos:station:USF.COMPS:FHP:1,2017-10-01T05:30:00Z,28.1530,-82.8010,10.0,7.43,90.41,9.4,'1111122,1111122,1111122' 
COMPS,ioos:station:USF.COMPS:FHP:1,2017-10-01T05:36:00Z,28.1530,-82.8010,10.0,5.99,86.43,7.44,'1111122,1111122,1111122' 
COMPS,ioos:station:USF.COMPS:FHP:1,2017-10-01T05:42:00Z,28.1530,-82.8010,10.0,6.17,93.59,8.03,'1111122,1111122,1111122' 
COMPS,ioos:station:USF.COMPS:FHP:1,2017-10-01T05:48:00Z,28.1530,-82.8010,10.0,6.94,102.03,8.23,'1111122,1111122,1111122' 
COMPS,ioos:station:USF.COMPS:FHP:1,2017-10-01T05:54:00Z,28.1530,-82.8010,10.0,6.02,100.25,7.35,'1111122,1111122,1111122' 
COMPS,ioos:station:USF.COMPS:FHP:1,2017-10-01T06:00:00Z,28.1530,-82.8010,10.0,5.61,98.67,6.95,'1111122,1111122,1111122' 
COMPS,ioos:station:USF.COMPS:FHP:1,2017-10-01T06:06:00Z,28.1530,-82.8010,10.0,5.73,96.65,8.13,'1111122,1111122,1111122' 
COMPS,ioos:station:USF.COMPS:FHP:1,2017-10-01T06:12:00Z,28.1530,-82.8010,10.0,5.07,89.74,7.05,'1111122,1111122,1111122' 
COMPS,ioos:station:USF.COMPS:FHP:1,2017-10-01T06:18:00Z,28.1530,-82.8010,10.0,5.37,89.22,6.76,'1111122,1111122,1111122' 
COMPS,ioos:station:USF.COMPS:FHP:1,2017-10-01T06:24:00Z,28.1530,-82.8010,10.0,4.48,89.91,5.97,'1111122,1111122,1111122' 
COMPS,ioos:station:USF.COMPS:FHP:1,2017-10-01T06:30:00Z,28.1530,-82.8010,10.0,4.23,101.0,5.29,'1111122,1111122,1111122' 
COMPS,ioos:station:USF.COMPS:FHP:1,2017-10-01T06:36:00Z,28.1530,-82.8010,10.0,3.61,107.46,4.5,'1111122,1111122,1111122' 
COMPS,ioos:station:USF.COMPS:FHP:1,2017-10-01T06:42:00Z,28.1530,-82.8010,10.0,4.45,114.68,5.87,'1111122,1111122,1111122' 
COMPS,ioos:station:USF.COMPS:FHP:1,2017-10-01T06:48:00Z,28.1530,-82.8010,10.0,3.22,115.59,4.99,'1111122,1111122,1111122' 
COMPS,ioos:station:USF.COMPS:FHP:1,2017-10-01T06:54:00Z,28.1530,-82.8010,10.0,3.82,112.2,4.8,'1111122,1111122,1111122' 
COMPS,ioos:station:USF.COMPS:FHP:1,2017-10-01T07:00:00Z,28.1530,-82.8010,10.0,4.32,122.29,5.19,'1111122,1111122,1111122' 
COMPS,ioos:station:USF.COMPS:FHP:1,2017-10-01T07:06:00Z,28.1530,-82.8010,10.0,4.06,125.54,5.39,'1111122,1111122,1111122' 
COMPS,ioos:station:USF.COMPS:FHP:1,2017-10-01T07:12:00Z,28.1530,-82.8010,10.0,4.24,136.67,5.19,'1111122,1111122,1111122' 
COMPS,ioos:station:USF.COMPS:FHP:1,2017-10-01T07:18:00Z,28.1530,-82.8010,10.0,4.39,127.38,5.78,'1111122,1111122,1111122' 
COMPS,ioos:station:USF.COMPS:FHP:1,2017-10-01T07:24:00Z,28.1530,-82.8010,10.0,4.08,120.98,5.19,'1111122,1111122,1111122' 
COMPS,ioos:station:USF.COMPS:FHP:1,2017-10-01T07:30:00Z,28.1530,-82.8010,10.0,3.65,120.03,4.99,'1111122,1111122,1111122' 
COMPS,ioos:station:USF.COMPS:FHP:1,2017-10-01T07:36:00Z,28.1530,-82.8010,10.0,3.58,108.84,4.5,'1111122,1111122,1111122' 
COMPS,ioos:station:USF.COMPS:FHP:1,2017-10-01T07:42:00Z,28.1530,-82.8010,10.0,3.35,100.53,4.21,'1111122,1111122,1111122' 
COMPS,ioos:station:USF.COMPS:FHP:1,2017-10-01T07:48:00Z,28.1530,-82.8010,10.0,3.07,114.27,3.72,'1111122,1111122,1111122' 
COMPS,ioos:station:USF.COMPS:FHP:1,2017-10-01T07:54:00Z,28.1530,-82.8010,10.0,2.79,108.91,3.62,'1111122,1111122,1111122' 
COMPS,ioos:station:USF.COMPS:FHP:1,2017-10-01T08:00:00Z,28.1530,-82.8010,10.0,3.48,117.66,4.5,'1111122,1111122,1111122' 
COMPS,ioos:station:USF.COMPS:FHP:1,2017-10-01T08:06:00Z,28.1530,-82.8010,10.0,3.74,123.86,4.9,'1111122,1111122,1111122' 
COMPS,ioos:station:USF.COMPS:FHP:1,2017-10-01T08:12:00Z,28.1530,-82.8010,10.0,4.25,123.54,5.09,'1111122,1111122,1111122' 
COMPS,ioos:station:USF.COMPS:FHP:1,2017-10-01T08:18:00Z,28.1530,-82.8010,10.0,4.03,128.14,5.29,'1111122,1111122,1111122' 
COMPS,ioos:station:USF.COMPS:FHP:1,2017-10-01T08:24:00Z,28.1530,-82.8010,10.0,4.59,138.45,5.39,'1111122,1111122,1111122' 
COMPS,ioos:station:USF.COMPS:FHP:1,2017-10-01T08:30:00Z,28.1530,-82.8010,10.0,4.64,141.28,5.48,'1111122,1111122,1111122' 
COMPS,ioos:station:USF.COMPS:FHP:1,2017-10-01T08:36:00Z,28.1530,-82.8010,10.0,3.81,144.29,4.6,'1111122,1111122,1111122' 
COMPS,ioos:station:USF.COMPS:FHP:1,2017-10-01T08:42:00Z,28.1530,-82.8010,10.0,3.86,141.25,4.9,'1111122,1111122,1111122' 
COMPS,ioos:station:USF.COMPS:FHP:1,2017-10-01T08:48:00Z,28.1530,-82.8010,10.0,2.78,137.87,3.72,'1111122,1111122,1111122' 
COMPS,ioos:station:USF.COMPS:FHP:1,2017-10-01T08:54:00Z,28.1530,-82.8010,10.0,2.89,132.32,4.11,'1111122,1111122,1111122' 
COMPS,ioos:station:USF.COMPS:FHP:1,2017-10-01T09:00:00Z,28.1530,-82.8010,10.0,2.61,119.13,3.72,'1111122,1111122,1111122' 
COMPS,ioos:station:USF.COMPS:FHP:1,2017-10-01T09:06:00Z,28.1530,-82.8010,10.0,1.49,103.14,3.23,'1111122,1111122,1111122' 
COMPS,ioos:station:USF.COMPS:FHP:1,2017-10-01T09:12:00Z,28.1530,-82.8010,10.0,1.72,96.57,3.42,'1111122,1111122,1111122' 
COMPS,ioos:station:USF.COMPS:FHP:1,2017-10-01T09:18:00Z,28.1530,-82.8010,10.0,2.17,99.88,3.52,'1111122,1111122,1111122' 
COMPS,ioos:station:USF.COMPS:FHP:1,2017-10-01T09:24:00Z,28.1530,-82.8010,10.0,2.2,79.84,2.74,'1111122,1111122,1111122' 
COMPS,ioos:station:USF.COMPS:FHP:1,2017-10-01T09:30:00Z,28.1530,-82.8010,10.0,2.28,75.73,3.13,'1111122,1111122,1111122' 
COMPS,ioos:station:USF.COMPS:FHP:1,2017-10-01T09:36:00Z,28.1530,-82.8010,10.0,2.88,71.37,3.62,'1111122,1111122,1111122' 
COMPS,ioos:station:USF.COMPS:FHP:1,2017-10-01T09:42:00Z,28.1530,-82.8010,10.0,2.54,83.15,3.62,'1111122,1111122,1111122' 
COMPS,ioos:station:USF.COMPS:FHP:1,2017-10-01T09:48:00Z,28.1530,-82.8010,10.0,2.32,95.91,3.62,'1111122,1111122,1111122' 
COMPS,ioos:station:USF.COMPS:FHP:1,2017-10-01T09:54:00Z,28.1530,-82.8010,10.0,1.61,96.15,2.64,'1111122,1111122,1111122' 
COMPS,ioos:station:USF.COMPS:FHP:1,2017-10-01T10:00:00Z,28.1530,-82.8010,10.0,1.74,101.14,2.64,'1111122,1111122,1111122' 
COMPS,ioos:station:USF.COMPS:FHP:1,2017-10-01T10:06:00Z,28.1530,-82.8010,10.0,2.03,105.93,2.93,'1111122,1111122,1111122' 
COMPS,ioos:station:USF.COMPS:FHP:1,2017-10-01T10:12:00Z,28.1530,-82.8010,10.0,2.14,103.54,3.42,'1111122,1111122,1111122' 
COMPS,ioos:station:USF.COMPS:FHP:1,2017-10-01T10:18:00Z,28.1530,-82.8010,10.0,2.16,95.29,2.93,'1111122,1111122,1111122' 
COMPS,ioos:station:USF.COMPS:FHP:1,2017-10-01T10:24:00Z,28.1530,-82.8010,10.0,1.91,87.88,3.13,'1111122,1111122,1111122' 
COMPS,ioos:station:USF.COMPS:FHP:1,2017-10-01T10:30:00Z,28.1530,-82.8010,10.0,1.87,82.92,2.74,'1111122,1111122,1111122' 
COMPS,ioos:station:USF.COMPS:FHP:1,2017-10-01T10:36:00Z,28.1530,-82.8010,10.0,2.31,85.76,3.13,'1111122,1111122,1111122' 
COMPS,ioos:station:USF.COMPS:FHP:1,2017-10-01T10:42:00Z,28.1530,-82.8010,10.0,2.74,91.78,3.72,'1111122,1111122,1111122' 
COMPS,ioos:station:USF.COMPS:FHP:1,2017-10-01T10:48:00Z,28.1530,-82.8010,10.0,3.36,100.46,4.5,'1111122,1111122,1111122' 
COMPS,ioos:station:USF.COMPS:FHP:1,2017-10-01T10:54:00Z,28.1530,-82.8010,10.0,4.05,106.78,4.99,'1111122,1111122,1111122' 
COMPS,ioos:station:USF.COMPS:FHP:1,2017-10-01T11:00:00Z,28.1530,-82.8010,10.0,3.92,109.61,4.99,'1111122,1111122,1111122' 
COMPS,ioos:station:USF.COMPS:FHP:1,2017-10-01T11:06:00Z,28.1530,-82.8010,10.0,3.71,114.45,4.8,'1111122,1111122,1111122' 
COMPS,ioos:station:USF.COMPS:FHP:1,2017-10-01T11:12:00Z,28.1530,-82.8010,10.0,3.36,108.31,4.7,'1111122,1111122,1111122' 
COMPS,ioos:station:USF.COMPS:FHP:1,2017-10-01T11:18:00Z,28.1530,-82.8010,10.0,2.68,94.36,4.01,'1111122,1111122,1111122' 
COMPS,ioos:station:USF.COMPS:FHP:1,2017-10-01T11:24:00Z,28.1530,-82.8010,10.0,1.77,78.62,3.03,'1111122,1111122,1111122' 
COMPS,ioos:station:USF.COMPS:FHP:1,2017-10-01T11:30:00Z,28.1530,-82.8010,10.0,2.64,62.04,3.42,'1111122,1111122,1111122' 
COMPS,ioos:station:USF.COMPS:FHP:1,2017-10-01T11:36:00Z,28.1530,-82.8010,10.0,2.96,73.94,4.01,'1111122,1111122,1111122' 
COMPS,ioos:station:USF.COMPS:FHP:1,2017-10-01T11:42:00Z,28.1530,-82.8010,10.0,3.35,66.95,4.11,'1111122,1111122,1111122' 
COMPS,ioos:station:USF.COMPS:FHP:1,2017-10-01T11:48:00Z,28.1530,-82.8010,10.0,3.52,76.9,4.31,'1111122,1111122,1111122' 
COMPS,ioos:station:USF.COMPS:FHP:1,2017-10-01T11:54:00Z,28.1530,-82.8010,10.0,3.39,81.65,4.31,'1111122,1111122,1111122' 
COMPS,ioos:station:USF.COMPS:FHP:1,2017-10-01T12:00:00Z,28.1530,-82.8010,10.0,3.23,76.03,3.91,'1111122,1111122,1111122' 
COMPS,ioos:station:USF.COMPS:FHP:1,2017-10-01T12:06:00Z,28.1530,-82.8010,10.0,3.0,64.49,3.72,'1111122,1111122,1111122' 
COMPS,ioos:station:USF.COMPS:FHP:1,2017-10-01T12:12:00Z,28.1530,-82.8010,10.0,3.08,59.1,3.91,'1111122,1111122,1111122' 
COMPS,ioos:station:USF.COMPS:FHP:1,2017-10-01T12:18:00Z,28.1530,-82.8010,10.0,3.34,55.81,4.6,'1111122,1111122,1111122' 
COMPS,ioos:station:USF.COMPS:FHP:1,2017-10-01T12:24:00Z,28.1530,-82.8010,10.0,3.71,55.76,4.8,'1111122,1111122,1111122' 
COMPS,ioos:station:USF.COMPS:FHP:1,2017-10-01T12:30:00Z,28.1530,-82.8010,10.0,3.66,67.03,4.7,'1111122,1111122,1111122' 
COMPS,ioos:station:USF.COMPS:FHP:1,2017-10-01T12:36:00Z,28.1530,-82.8010,10.0,4.04,67.25,4.99,'1111122,1111122,1111122' 
COMPS,ioos:station:USF.COMPS:FHP:1,2017-10-01T12:42:00Z,28.1530,-82.8010,10.0,4.81,56.88,5.78,'1111122,1111122,1111122' 
COMPS,ioos:station:USF.COMPS:FHP:1,2017-10-01T12:48:00Z,28.1530,-82.8010,10.0,5.62,61.35,7.25,'1111122,1111122,1111122' 
COMPS,ioos:station:USF.COMPS:FHP:1,2017-10-01T12:54:00Z,28.1530,-82.8010,10.0,4.98,64.47,6.17,'1111122,1111122,1111122' 
COMPS,ioos:station:USF.COMPS:FHP:1,2017-10-01T13:00:00Z,28.1530,-82.8010,10.0,4.57,65.4,5.78,'1111122,1111122,1111122' 
COMPS,ioos:station:USF.COMPS:FHP:1,2017-10-01T13:06:00Z,28.1530,-82.8010,10.0,4.22,75.14,5.39,'1111122,1111122,1111122' 
COMPS,ioos:station:USF.COMPS:FHP:1,2017-10-01T13:12:00Z,28.1530,-82.8010,10.0,4.37,79.41,5.68,'1111122,1111122,1111122' 
COMPS,ioos:station:USF.COMPS:FHP:1,2017-10-01T13:18:00Z,28.1530,-82.8010,10.0,5.05,77.92,5.87,'1111122,1111122,1111122' 
COMPS,ioos:station:USF.COMPS:FHP:1,2017-10-01T13:24:00Z,28.1530,-82.8010,10.0,4.5,81.58,6.07,'1111122,1111122,1111122' 
COMPS,ioos:station:USF.COMPS:FHP:1,2017-10-01T13:30:00Z,28.1530,-82.8010,10.0,4.52,85.26,5.58,'1111122,1111122,1111122' 
COMPS,ioos:station:USF.COMPS:FHP:1,2017-10-01T13:36:00Z,28.1530,-82.8010,10.0,4.55,91.4,5.97,'1111122,1111122,1111122' 
COMPS,ioos:station:USF.COMPS:FHP:1,2017-10-01T13:42:00Z,28.1530,-82.8010,10.0,4.84,88.39,5.97,'1111122,1111122,1111122' 
COMPS,ioos:station:USF.COMPS:FHP:1,2017-10-01T13:48:00Z,28.1530,-82.8010,10.0,5.1,90.21,6.27,'1111122,1111122,1111122' 
COMPS,ioos:station:USF.COMPS:FHP:1,2017-10-01T13:54:00Z,28.1530,-82.8010,10.0,5.1,86.92,6.66,'1111122,1111122,1111122' 
COMPS,ioos:station:USF.COMPS:FHP:1,2017-10-01T14:00:00Z,28.1530,-82.8010,10.0,4.86,92.1,6.27,'1111122,1111122,1111122' 
COMPS,ioos:station:USF.COMPS:FHP:1,2017-10-01T14:06:00Z,28.1530,-82.8010,10.0,4.77,93.94,6.37,'1111122,1111122,1111122' 
COMPS,ioos:station:USF.COMPS:FHP:1,2017-10-01T14:12:00Z,28.1530,-82.8010,10.0,4.75,95.88,5.58,'1111122,1111122,1111122' 
COMPS,ioos:station:USF.COMPS:FHP:1,2017-10-01T14:18:00Z,28.1530,-82.8010,10.0,5.11,105.52,7.25,'1111122,1111122,1111122' 
COMPS,ioos:station:USF.COMPS:FHP:1,2017-10-01T14:24:00Z,28.1530,-82.8010,10.0,5.2,104.92,6.66,'1111122,1111122,1111122' 
COMPS,ioos:station:USF.COMPS:FHP:1,2017-10-01T14:30:00Z,28.1530,-82.8010,10.0,3.7,105.2,5.39,'1111122,1111122,1111122' 
COMPS,ioos:station:USF.COMPS:FHP:1,2017-10-01T14:36:00Z,28.1530,-82.8010,10.0,3.5,109.51,4.5,'1111122,1111122,1111122' 
COMPS,ioos:station:USF.COMPS:FHP:1,2017-10-01T14:42:00Z,28.1530,-82.8010,10.0,5.14,126.27,6.66,'1111122,1111122,1111122' 
COMPS,ioos:station:USF.COMPS:FHP:1,2017-10-01T14:48:00Z,28.1530,-82.8010,10.0,4.51,120.96,5.78,'1111122,1111122,1111122' 
COMPS,ioos:station:USF.COMPS:FHP:1,2017-10-01T14:54:00Z,28.1530,-82.8010,10.0,4.18,110.45,5.48,'1111122,1111122,1111122' 
COMPS,ioos:station:USF.COMPS:FHP:1,2017-10-01T15:00:00Z,28.1530,-82.8010,10.0,4.07,115.82,5.68,'1111122,1111122,1111122' 
COMPS,ioos:station:USF.COMPS:FHP:1,2017-10-01T15:06:00Z,28.1530,-82.8010,10.0,4.93,103.98,6.95,'1111122,1111122,1111122' 
COMPS,ioos:station:USF.COMPS:FHP:1,2017-10-01T15:12:00Z,28.1530,-82.8010,10.0,4.72,94.3,6.37,'1111122,1111122,1111122' 
COMPS,ioos:station:USF.COMPS:FHP:1,2017-10-01T15:18:00Z,28.1530,-82.8010,10.0,4.64,113.07,5.97,'1111122,1111122,1111122' 
COMPS,ioos:station:USF.COMPS:FHP:1,2017-10-01T15:24:00Z,28.1530,-82.8010,10.0,4.15,121.95,5.48,'1111122,1111122,1111122' 
COMPS,ioos:station:USF.COMPS:FHP:1,2017-10-01T15:30:00Z,28.1530,-82.8010,10.0,4.88,103.5,6.66,'1111122,1111122,1111122' 
COMPS,ioos:station:USF.COMPS:FHP:1,2017-10-01T15:36:00Z,28.1530,-82.8010,10.0,4.0,97.5,5.29,'1111122,1111122,1111122' 
COMPS,ioos:station:USF.COMPS:FHP:1,2017-10-01T15:42:00Z,28.1530,-82.8010,10.0,5.06,95.46,7.05,'1111122,1111122,1111122' 
COMPS,ioos:station:USF.COMPS:FHP:1,2017-10-01T15:48:00Z,28.1530,-82.8010,10.0,5.6,116.52,6.95,'1111122,1111122,1111122' 
COMPS,ioos:station:USF.COMPS:FHP:1,2017-10-01T15:54:00Z,28.1530,-82.8010,10.0,4.99,110.21,6.95,'1111122,1111122,1111122' 
COMPS,ioos:station:USF.COMPS:FHP:1,2017-10-01T16:00:00Z,28.1530,-82.8010,10.0,5.09,112.53,6.85,'1111122,1111122,1111122' 
COMPS,ioos:station:USF.COMPS:FHP:1,2017-10-01T16:06:00Z,28.1530,-82.8010,10.0,5.85,128.86,7.93,'1111122,1111122,1111122' 
COMPS,ioos:station:USF.COMPS:FHP:1,2017-10-01T16:12:00Z,28.1530,-82.8010,10.0,5.8,124.98,7.83,'1111122,1111122,1111122' 
COMPS,ioos:station:USF.COMPS:FHP:1,2017-10-01T16:18:00Z,28.1530,-82.8010,10.0,4.15,117.96,5.78,'1111122,1111122,1111122' 
COMPS,ioos:station:USF.COMPS:FHP:1,2017-10-01T16:24:00Z,28.1530,-82.8010,10.0,4.87,108.28,8.13,'1111122,1111122,1111122' 
COMPS,ioos:station:USF.COMPS:FHP:1,2017-10-01T16:30:00Z,28.1530,-82.8010,10.0,5.73,126.65,7.93,'1111122,1111122,1111122' 
COMPS,ioos:station:USF.COMPS:FHP:1,2017-10-01T16:36:00Z,28.1530,-82.8010,10.0,4.21,123.01,6.95,'1111122,1111122,1111122' 
COMPS,ioos:station:USF.COMPS:FHP:1,2017-10-01T16:42:00Z,28.1530,-82.8010,10.0,5.25,108.32,7.35,'1111122,1111122,1111122' 
COMPS,ioos:station:USF.COMPS:FHP:1,2017-10-01T16:48:00Z,28.1530,-82.8010,10.0,4.55,112.87,5.87,'1111122,1111122,1111122' 
COMPS,ioos:station:USF.COMPS:FHP:1,2017-10-01T16:54:00Z,28.1530,-82.8010,10.0,3.93,118.89,5.87,'1111122,1111122,1111122' 
COMPS,ioos:station:USF.COMPS:FHP:1,2017-10-01T17:00:00Z,28.1530,-82.8010,10.0,4.09,115.22,7.05,'1111122,1111122,1111122' 
COMPS,ioos:station:USF.COMPS:FHP:1,2017-10-01T17:06:00Z,28.1530,-82.8010,10.0,4.45,124.27,6.46,'1111122,1111122,1111122' 
COMPS,ioos:station:USF.COMPS:FHP:1,2017-10-01T17:12:00Z,28.1530,-82.8010,10.0,4.86,120.88,6.27,'1111122,1111122,1111122' 
COMPS,ioos:station:USF.COMPS:FHP:1,2017-10-01T17:18:00Z,28.1530,-82.8010,10.0,3.9,132.09,5.68,'1111122,1111122,1111122' 
COMPS,ioos:station:USF.COMPS:FHP:1,2017-10-01T17:24:00Z,28.1530,-82.8010,10.0,4.06,118.51,5.87,'1111122,1111122,1111122' 
COMPS,ioos:station:USF.COMPS:FHP:1,2017-10-01T17:30:00Z,28.1530,-82.8010,10.0,4.02,135.38,5.78,'1111122,1111122,1111122' 
COMPS,ioos:station:USF.COMPS:FHP:1,2017-10-01T17:36:00Z,28.1530,-82.8010,10.0,3.81,135.9,4.9,'1111122,1111122,1111122' 
COMPS,ioos:station:USF.COMPS:FHP:1,2017-10-01T17:42:00Z,28.1530,-82.8010,10.0,3.83,99.23,6.07,'1111122,1111122,1111122' 
COMPS,ioos:station:USF.COMPS:FHP:1,2017-10-01T17:48:00Z,28.1530,-82.8010,10.0,4.09,98.36,5.87,'1111122,1111122,1111122' 
COMPS,ioos:station:USF.COMPS:FHP:1,2017-10-01T17:54:00Z,28.1530,-82.8010,10.0,3.56,102.15,5.87,'1111122,1111122,1111122' 
COMPS,ioos:station:USF.COMPS:FHP:1,2017-10-01T18:00:00Z,28.1530,-82.8010,10.0,3.54,90.67,6.17,'1111122,1111122,1111122' 
COMPS,ioos:station:USF.COMPS:FHP:1,2017-10-01T18:06:00Z,28.1530,-82.8010,10.0,4.36,99.25,6.07,'1111122,1111122,1111122' 
COMPS,ioos:station:USF.COMPS:FHP:1,2017-10-01T18:12:00Z,28.1530,-82.8010,10.0,4.04,83.18,6.27,'1111122,1111122,1111122' 
COMPS,ioos:station:USF.COMPS:FHP:1,2017-10-01T18:18:00Z,28.1530,-82.8010,10.0,3.52,109.6,4.99,'1111122,1111122,1111122' 
COMPS,ioos:station:USF.COMPS:FHP:1,2017-10-01T18:24:00Z,28.1530,-82.8010,10.0,3.66,79.9,5.48,'1111122,1111122,1111122' 
COMPS,ioos:station:USF.COMPS:FHP:1,2017-10-01T18:30:00Z,28.1530,-82.8010,10.0,3.91,123.27,6.27,'1111122,1111122,1111122' 
COMPS,ioos:station:USF.COMPS:FHP:1,2017-10-01T18:36:00Z,28.1530,-82.8010,10.0,5.23,89.14,6.76,'1111122,1111122,1111122' 
COMPS,ioos:station:USF.COMPS:FHP:1,2017-10-01T18:42:00Z,28.1530,-82.8010,10.0,4.5,89.93,6.17,'1111122,1111122,1111122' 
COMPS,ioos:station:USF.COMPS:FHP:1,2017-10-01T18:48:00Z,28.1530,-82.8010,10.0,4.04,87.78,5.29,'1111122,1111122,1111122' 
COMPS,ioos:station:USF.COMPS:FHP:1,2017-10-01T18:54:00Z,28.1530,-82.8010,10.0,4.49,103.64,6.07,'1111122,1111122,1111122' 
COMPS,ioos:station:USF.COMPS:FHP:1,2017-10-01T19:00:00Z,28.1530,-82.8010,10.0,4.03,100.32,5.29,'1111122,1111122,1111122' 
COMPS,ioos:station:USF.COMPS:FHP:1,2017-10-01T19:06:00Z,28.1530,-82.8010,10.0,4.15,86.48,5.68,'1111122,1111122,1111122' 
COMPS,ioos:station:USF.COMPS:FHP:1,2017-10-01T19:12:00Z,28.1530,-82.8010,10.0,3.53,91.5,5.48,'1111122,1111122,1111122' 
COMPS,ioos:station:USF.COMPS:FHP:1,2017-10-01T19:18:00Z,28.1530,-82.8010,10.0,4.2,95.75,5.87,'1111122,1111122,1111122' 
COMPS,ioos:station:USF.COMPS:FHP:1,2017-10-01T19:24:00Z,28.1530,-82.8010,10.0,4.7,94.29,5.87,'1111122,1111122,1111122' 
COMPS,ioos:station:USF.COMPS:FHP:1,2017-10-01T19:30:00Z,28.1530,-82.8010,10.0,3.57,111.45,4.99,'1111122,1111122,1111122' 
COMPS,ioos:station:USF.COMPS:FHP:1,2017-10-01T19:36:00Z,28.1530,-82.8010,10.0,3.48,109.46,5.78,'1111122,1111122,1111122' 